TimeCST,TemperatureF,Dew PointF,Humidity,Sea Level PressureIn,VisibilityMPH,Wind Direction,Wind SpeedMPH,Gust SpeedMPH,PrecipitationIn,Events,Conditions,WindDirDegrees,DateUTC
12:15 AM,32.0,24.3,73,30.35,10.0,ENE,4.6,-,N/A,,Overcast,60,2013-03-08 06:15:00
12:35 AM,32.0,24.6,74,30.35,10.0,Calm,Calm,-,N/A,,Overcast,0,2013-03-08 06:35:00
12:55 AM,32.0,23.9,72,30.36,10.0,East,4.6,-,N/A,,Overcast,90,2013-03-08 06:55:00
1:15 AM,32.0,23.7,71,30.35,10.0,ENE,4.6,-,N/A,,Overcast,60,2013-03-08 07:15:00
1:35 AM,32.0,23.5,71,30.35,10.0,NE,3.5,-,N/A,,Overcast,50,2013-03-08 07:35:00
1:55 AM,31.8,23.5,71,30.35,10.0,Calm,Calm,-,N/A,,Overcast,0,2013-03-08 07:55:00
2:15 AM,31.8,23.2,70,30.35,10.0,North,3.5,-,N/A,,Overcast,10,2013-03-08 08:15:00
2:35 AM,31.8,23.0,70,30.35,10.0,NE,5.8,-,N/A,,Overcast,50,2013-03-08 08:35:00
2:55 AM,31.6,22.6,69,30.35,10.0,NNE,4.6,-,N/A,,Overcast,30,2013-03-08 08:55:00
3:15 AM,31.1,23.4,73,30.35,10.0,Calm,Calm,-,N/A,,Overcast,0,2013-03-08 09:15:00
3:35 AM,31.1,23.4,73,30.35,10.0,Calm,Calm,-,N/A,,Overcast,0,2013-03-08 09:35:00
3:55 AM,30.2,23.9,77,30.35,10.0,Calm,Calm,-,N/A,,Overcast,0,2013-03-08 09:55:00
4:15 AM,29.1,24.1,81,30.36,10.0,Calm,Calm,-,N/A,,Scattered Clouds,0,2013-03-08 10:15:00
4:35 AM,27.9,24.8,88,30.37,10.0,Calm,Calm,-,N/A,,Clear,0,2013-03-08 10:35:00
4:55 AM,27.5,23.7,86,30.38,10.0,Calm,Calm,-,N/A,,Clear,0,2013-03-08 10:55:00
5:15 AM,27.1,24.4,90,30.39,10.0,Calm,Calm,-,N/A,,Clear,0,2013-03-08 11:15:00
5:35 AM,26.6,23.7,89,30.39,10.0,Calm,Calm,-,N/A,,Clear,0,2013-03-08 11:35:00
5:55 AM,27.3,23.0,84,30.39,10.0,Calm,Calm,-,N/A,,Clear,0,2013-03-08 11:55:00
6:15 AM,27.3,23.0,84,30.39,10.0,Calm,Calm,-,N/A,,Clear,0,2013-03-08 12:15:00
6:35 AM,27.0,23.5,87,30.40,10.0,Calm,Calm,-,N/A,,Clear,0,2013-03-08 12:35:00
6:55 AM,27.7,23.7,85,30.41,10.0,Calm,Calm,-,N/A,,Clear,0,2013-03-08 12:55:00
7:15 AM,28.8,23.9,82,30.42,10.0,Calm,Calm,-,N/A,,Clear,0,2013-03-08 13:15:00
7:35 AM,30.0,23.9,78,30.43,10.0,Calm,Calm,-,N/A,,Clear,0,2013-03-08 13:35:00
7:55 AM,31.1,23.5,74,30.43,10.0,Calm,Calm,-,N/A,,Clear,0,2013-03-08 13:55:00
8:15 AM,33.1,24.1,70,30.42,10.0,East,3.5,-,N/A,,Clear,80,2013-03-08 14:15:00
8:35 AM,34.3,25.2,69,30.42,10.0,North,4.6,-,N/A,,Clear,360,2013-03-08 14:35:00
8:55 AM,35.8,24.6,64,30.42,10.0,NE,4.6,-,N/A,,Scattered Clouds,40,2013-03-08 14:55:00
9:15 AM,36.7,24.3,61,30.42,10.0,East,6.9,-,N/A,,Clear,90,2013-03-08 15:15:00
9:35 AM,36.7,24.6,62,30.41,10.0,Calm,Calm,-,N/A,,Clear,0,2013-03-08 15:35:00
9:55 AM,38.5,25.3,59,30.40,10.0,ENE,3.5,-,N/A,,Clear,60,2013-03-08 15:55:00
10:15 AM,38.8,25.5,59,30.40,10.0,Calm,Calm,-,N/A,,Clear,0,2013-03-08 16:15:00
10:35 AM,40.1,25.7,56,30.39,10.0,NE,5.8,-,N/A,,Clear,40,2013-03-08 16:35:00
10:55 AM,40.6,24.4,53,30.39,10.0,East,3.5,-,N/A,,Clear,100,2013-03-08 16:55:00
11:15 AM,41.9,26.2,54,30.38,10.0,NNE,3.5,-,N/A,,Clear,30,2013-03-08 17:15:00
11:35 AM,43.0,25.5,50,30.38,10.0,ENE,5.8,-,N/A,,Clear,70,2013-03-08 17:35:00
11:55 AM,44.2,25.5,48,30.38,10.0,NNE,5.8,-,N/A,,Clear,30,2013-03-08 17:55:00
12:15 PM,45.0,25.0,46,30.37,10.0,NE,8.1,-,N/A,,Clear,50,2013-03-08 18:15:00
12:35 PM,45.1,24.3,44,30.36,10.0,Calm,Calm,-,N/A,,Clear,0,2013-03-08 18:35:00
12:55 PM,46.4,24.6,42,30.36,10.0,East,4.6,-,N/A,,Clear,100,2013-03-08 18:55:00
1:15 PM,46.9,24.4,41,30.36,10.0,WNW,3.5,-,N/A,,Clear,290,2013-03-08 19:15:00
1:35 PM,47.5,25.2,42,30.35,10.0,Calm,Calm,-,N/A,,Clear,0,2013-03-08 19:35:00
1:55 PM,48.2,24.8,40,30.34,10.0,Calm,Calm,-,N/A,,Clear,0,2013-03-08 19:55:00
2:15 PM,48.9,25.7,40,30.33,10.0,North,3.5,-,N/A,,Clear,10,2013-03-08 20:15:00
2:35 PM,50.0,25.9,39,30.32,10.0,NE,6.9,-,N/A,,Clear,50,2013-03-08 20:35:00
2:55 PM,50.0,25.3,38,30.32,10.0,ENE,6.9,-,N/A,,Clear,60,2013-03-08 20:55:00
3:15 PM,49.1,24.6,38,30.32,10.0,ENE,4.6,-,N/A,,Clear,60,2013-03-08 21:15:00
3:35 PM,49.5,24.6,38,30.31,10.0,ENE,5.8,-,N/A,,Clear,60,2013-03-08 21:35:00
3:55 PM,49.5,25.7,40,30.31,10.0,NE,5.8,-,N/A,,Clear,50,2013-03-08 21:55:00
4:15 PM,49.5,26.1,40,30.30,10.0,NNE,5.8,-,N/A,,Clear,30,2013-03-08 22:15:00
4:35 PM,48.6,24.6,39,30.30,10.0,NNE,6.9,-,N/A,,Clear,20,2013-03-08 22:35:00
4:55 PM,48.2,25.2,41,30.31,10.0,NE,6.9,-,N/A,,Clear,40,2013-03-08 22:55:00
5:15 PM,47.1,25.0,42,30.31,10.0,NNE,5.8,-,N/A,,Clear,30,2013-03-08 23:15:00
5:35 PM,45.5,25.9,46,30.31,10.0,Calm,Calm,-,N/A,,Clear,0,2013-03-08 23:35:00
5:55 PM,42.3,30.2,62,30.32,10.0,Calm,Calm,-,N/A,,Clear,0,2013-03-08 23:55:00
6:15 PM,41.5,29.5,62,30.33,10.0,Calm,Calm,-,N/A,,Clear,0,2013-03-09 00:15:00
6:35 PM,39.6,29.3,67,30.34,10.0,Calm,Calm,-,N/A,,Clear,0,2013-03-09 00:35:00
6:55 PM,39.4,29.3,67,30.34,10.0,Calm,Calm,-,N/A,,Clear,0,2013-03-09 00:55:00
7:15 PM,37.2,29.3,73,30.34,10.0,West,5.8,-,N/A,,Clear,280,2013-03-09 01:15:00
7:35 PM,36.0,29.8,78,30.33,10.0,Calm,Calm,-,N/A,,Clear,0,2013-03-09 01:35:00
7:55 PM,35.4,30.0,81,30.34,10.0,Calm,Calm,-,N/A,,Clear,0,2013-03-09 01:55:00
8:15 PM,34.9,29.7,81,30.35,10.0,Calm,Calm,-,N/A,,Clear,0,2013-03-09 02:15:00
8:35 PM,33.4,29.1,84,30.34,10.0,Calm,Calm,-,N/A,,Clear,0,2013-03-09 02:35:00
8:55 PM,33.1,29.1,85,30.34,10.0,Calm,Calm,-,N/A,,Clear,0,2013-03-09 02:55:00
9:15 PM,31.6,28.2,87,30.35,10.0,Calm,Calm,-,N/A,,Clear,0,2013-03-09 03:15:00
9:35 PM,31.5,27.9,87,30.35,10.0,Calm,Calm,-,N/A,,Clear,0,2013-03-09 03:35:00
9:55 PM,31.3,28.2,88,30.36,10.0,Calm,Calm,-,N/A,,Clear,0,2013-03-09 03:55:00
10:15 PM,30.2,27.9,91,30.36,10.0,Calm,Calm,-,N/A,,Clear,0,2013-03-09 04:15:00
10:35 PM,30.0,28.2,93,30.35,10.0,Calm,Calm,-,N/A,,Clear,0,2013-03-09 04:35:00
10:55 PM,29.8,27.7,92,30.35,10.0,Calm,Calm,-,N/A,,Clear,0,2013-03-09 04:55:00
11:15 PM,29.7,27.1,90,30.33,10.0,Calm,Calm,-,N/A,,Clear,0,2013-03-09 05:15:00
11:35 PM,28.6,26.6,92,30.33,10.0,Calm,Calm,-,N/A,,Clear,0,2013-03-09 05:35:00
11:55 PM,28.4,26.8,94,30.34,10.0,Calm,Calm,-,N/A,,Clear,0,2013-03-09 05:55:00